User: anonymous   Login
Location: Unspecified
(0.0000°N, 0.0000°E)
Time: 12:05:51
(UTC+00:00)
Language:

AISAT - Orbit

View from above orbital plane
View from above orbital plane
View from above satellite
View from above satellite

Ground track
Ground track

The orbit data is extracted from the following two-line orbital elements,

1 40054U 14034B   17178.91553255 +.00000328 +00000-0 +54069-4 0  9995
2 40054 098.1896 278.6860 0013113 017.7608 342.4057 14.77092558161305
Epoch (UTC): 27 June 2017 21:58:22
Eccentricity: 0.0013113
inclination: 98.1896°
perigee height: 629 km
apogee height: 648 km
right ascension of ascending node: 278.6860°
argument of perigee: 17.7608°
revolutions per day: 14.77092558
mean anomaly at epoch: 342.4057°
orbit number at epoch: 16130

The dashed part of the orbit path shows where the satellite is in the earth's shadow,  

DLR